Overview Statistics Trail Chart Weather Telemetry Raw packets
 

This is the latest recevied weather packets stored in our database for station/object N5JXS. If no packets are shown the sender has not sent any weather packets the latest 10 day(s).

<< 1 2 3 4 5 6 7 >>
Time Temp. Humidity Pressure Rain* Wind** Luminosity Snow
1788615126 18.33° C 49% 1026 hPa 0 mm - 16 W/m² -
1788614824 18.33° C 49% 1025.8 hPa 0 mm - 16 W/m² -
1788614520 18.33° C 49% 1025.8 hPa 0 mm - 16 W/m² -
1788614215 17.78° C 50% 1026.1 hPa 0 mm - 16 W/m² -
1788613910 17.78° C 50% 1026 hPa 0 mm - 17 W/m² -
1788613605 17.78° C 49% 1025.6 hPa 0 mm - 18 W/m² -
1788613304 17.78° C 51% 1025.3 hPa 0 mm - 16 W/m² -
1788612999 17.78° C 50% 1025.3 hPa 0 mm - 13 W/m² -
1788612695 17.22° C 51% 1025.3 hPa 0 mm - 11 W/m² -
1788612391 17.22° C 53% 1025.2 hPa 0 mm - 6 W/m² -
1788612087 16.67° C 54% 1025.2 hPa 0 mm - 3 W/m² -
1788611781 17.22° C 54% 1025.2 hPa 0 mm - 1 W/m² -
1788611479 17.22° C 54% 1025.6 hPa 0 mm - 0 W/m² -
1788611173 17.22° C 55% 1024.6 hPa 0 mm - 0 W/m² -
1788610873 17.22° C 55% 1025 hPa 0 mm - 0 W/m² -
1788610568 17.22° C 55% 1024.8 hPa 0 mm - 0 W/m² -
1788610263 17.22° C 57% 1025 hPa 0 mm - 0 W/m² -
1788609962 16.67° C 60% 1025 hPa 0 mm - 0 W/m² -
1788609657 16.11° C 62% 1025.2 hPa 0 mm - 0 W/m² -
1788609356 15.56° C 66% 1025 hPa 0 mm - 0 W/m² -
1788609051 15° C 69% 1024.8 hPa 0 mm - 0 W/m² -
1788608450 14.44° C 75% 1025 hPa 0 mm - 0 W/m² -
1788608144 13.89° C 77% 1025.1 hPa 0 mm - 0 W/m² -
1788607840 13.89° C 78% 1025.3 hPa 0 mm - 0 W/m² -
1788607535 13.89° C 78% 1025 hPa 0 mm - 0 W/m² -

* Rain latest hour (hover to see other rain measurements)
** Current wind speed in m/s (hover to see current wind gust speed)